This is the latest recevied weather packets stored in our database for station/object W0WC. If no packets are shown the sender has not sent any weather packets the latest 10 day(s).
| Time | Temp. | Humidity | Pressure | Rain* | Wind** | Luminosity | Snow |
|---|---|---|---|---|---|---|---|
| 1777597886 | 15° C | 67% | 1016.8 hPa | 0 mm | - | 1 W/m² | - |
| 1777597580 | 15° C | 68% | 1016.9 hPa | 0 mm | - | 2 W/m² | - |
| 1777597276 | 15° C | 65% | 1016.8 hPa | 0 mm | - | 4 W/m² | - |
| 1777596971 | 15.56° C | 64% | 1016.7 hPa | 0 mm | - | 6 W/m² | - |
| 1777596669 | 15.56° C | 65% | 1016.7 hPa | 0 mm | - | 11 W/m² | - |
| 1777596366 | 15.56° C | 67% | 1016.9 hPa | 0 mm | - | 16 W/m² | - |
| 1777596063 | 15.56° C | 66% | 1016.8 hPa | 0 mm | - | 18 W/m² | - |
| 1777595763 | 16.11° C | 64% | 1017 hPa | 0 mm | - | 17 W/m² | - |
| 1777595459 | 16.11° C | 59% | 1016.8 hPa | 0 mm | - | 18 W/m² | - |
| 1777595155 | 16.67° C | 60% | 1016.8 hPa | 0 mm | - | 20 W/m² | - |
| 1777594851 | 16.67° C | 59% | 1016.7 hPa | 0 mm | - | 33 W/m² | - |
| 1777594548 | 16.67° C | 57% | 1016.9 hPa | 0 mm | - | 38 W/m² | - |
| 1777594244 | 16.67° C | 57% | 1016.7 hPa | 0 mm | - | 46 W/m² | - |
| 1777593940 | 16.67° C | 55% | 1016.5 hPa | 0 mm | - | 49 W/m² | - |
| 1777593636 | 16.67° C | 54% | 1016.6 hPa | 0 mm | - | 51 W/m² | - |
| 1777593333 | 16.67° C | 55% | 1016.9 hPa | 0 mm | - | 73 W/m² | - |
| 1777593027 | 16.67° C | 53% | 1016.8 hPa | 0 mm | - | 70 W/m² | - |
| 1777592721 | 17.22° C | 51% | 1016.8 hPa | 0 mm | - | 74 W/m² | - |
| 1777592417 | 17.22° C | 52% | 1016.8 hPa | 0 mm | - | 89 W/m² | - |
| 1777592112 | 17.22° C | 52% | 1017.1 hPa | 0 mm | - | 92 W/m² | - |
| 1777591810 | 17.22° C | 51% | 1016.9 hPa | 0 mm | - | 78 W/m² | - |
| 1777591505 | 17.22° C | 50% | 1016.9 hPa | 0 mm | - | 81 W/m² | - |
| 1777591202 | 17.22° C | 50% | 1017.1 hPa | 0 mm | - | 72 W/m² | - |
| 1777590901 | 17.22° C | 49% | 1017.1 hPa | 0 mm | - | 84 W/m² | - |
| 1777590598 | 17.22° C | 50% | 1016.9 hPa | 0 mm | - | 96 W/m² | - |
* Rain latest hour (hover to see other rain measurements)
** Current wind speed in m/s (hover to see current wind gust speed)